Keflavik, Iceland

9:16 AM GMT on June 28, 2017 (GMT +0000)
Keflavik

Weather History for BIKF - May, 2013

Change the Weather History Date:

Monday, May 13, 2013

  Actual Average Record
Temperature  
Mean Temperature 42 °F -  
Max Temperature 49 °F 48 °F 52 °F (2017)
Min Temperature 35 °F 39 °F 28 °F (2012)
Degree Days  
Heating Degree Days 23    
Moisture  
Dew Point 37 °F    
Average Humidity 79    
Maximum Humidity 93    
Minimum Humidity 52    
Precipitation  
Precipitation 0.00 in - - ()
Sea Level Pressure  
Sea Level Pressure 29.57 in    
Wind  
Wind Speed 14 mph ()    
Max Wind Speed 28 mph    
Max Gust Speed -    
Visibility 6.2 miles    
Events      
Averages and records for this station are not official NWS values.
T = Trace of Precipitation, MM = Missing Value Source: Averaged Metar Reports

Daily Weather History Graph

Daily Weather History Graph

Search for Another Location

Airport or City:

Trip Planner

Search our weather history database for the weather conditions in past years. The results will help you decide how hot, cold, wet, or windy it might be!

Date:

Astronomy

May. 13, 2013 Rise Set
Actual Time 4:23 AM GMT 10:32 PM GMT
Civil Twilight 2:51 AM GMT 12:07 AM GMT
Nautical Twilight Sun does not set Sun does not set
Astronomical Twilight Sun does not set Sun does not set
Moon 6:49 AM GMT (5/13) 12:59 AM GMT (5/13)
Length of Visible Light 21h 16m
Length of Day
18h 08m
Waxing Crescent, 11% of the Moon is Illuminated
May 13
Waxing Crescent
May 18
First Quarter
May 25
Full
May 31
Last Quarter
Jun 8
New

Hourly Weather History & Observations

Time (GMT) Temp. Windchill Dew Point Humidity Pressure Visibility Wind Dir Wind Speed Gust Speed Precip Events Conditions
12:00 AM 39 °F - 35 °F 81% 29.42 in 44 mi North 9.2 mph - -   Scattered Clouds
12:00 AM 37.4 °F 30.8 °F 33.8 °F 87% 29.42 in 6.2 mi North 9.2 mph - N/A   Partly Cloudy
12:30 AM 37.4 °F 30.3 °F 35.6 °F 93% 29.42 in 6.2 mi North 10.4 mph - N/A   Partly Cloudy
1:00 AM 37.4 °F 31.4 °F 33.8 °F 87% 29.42 in 6.2 mi NNW 8.1 mph - N/A   Partly Cloudy
1:30 AM 37.4 °F 30.8 °F 33.8 °F 87% 29.42 in 6.2 mi North 9.2 mph - N/A   Scattered Clouds
2:00 AM 37.4 °F 30.3 °F 33.8 °F 87% 29.42 in 6.2 mi North 10.4 mph - N/A   Scattered Clouds
2:30 AM 35.6 °F 28.0 °F 33.8 °F 93% 29.44 in 6.2 mi North 10.4 mph - N/A   Scattered Clouds
3:00 AM 35.6 °F 28.6 °F 33.8 °F 93% 29.44 in 6.2 mi NNW 9.2 mph - N/A   Scattered Clouds
3:30 AM 37.4 °F 30.8 °F 33.8 °F 87% 29.44 in 6.2 mi NNW 9.2 mph - N/A   Scattered Clouds
4:00 AM 37.4 °F 31.4 °F 33.8 °F 87% 29.44 in 6.2 mi NNW 8.1 mph - N/A   Scattered Clouds
4:30 AM 37.4 °F 31.4 °F 33.8 °F 87% 29.44 in 6.2 mi NNW 8.1 mph - N/A   Scattered Clouds
5:00 AM 35.6 °F 29.2 °F 33.8 °F 93% 29.44 in 6.2 mi North 8.1 mph - N/A   Scattered Clouds
5:30 AM 37.4 °F 33.8 °F 35.6 °F 93% 29.47 in 6.2 mi North 4.6 mph - N/A   Scattered Clouds
6:00 AM 38 °F - 36 °F 88% 29.49 in 44 mi NNE 5.8 mph - -   Scattered Clouds
6:00 AM 37.4 °F 32.8 °F 35.6 °F 93% 29.47 in 6.2 mi NNE 5.8 mph - N/A   Scattered Clouds
6:30 AM 41.0 °F 35.2 °F 37.4 °F 87% 29.47 in 6.2 mi North 9.2 mph - N/A   Scattered Clouds
7:00 AM 41.0 °F 34.7 °F 37.4 °F 87% 29.50 in 6.2 mi North 10.4 mph - N/A   Scattered Clouds
7:30 AM 41.0 °F 34.7 °F 37.4 °F 87% 29.50 in 6.2 mi North 10.4 mph - N/A   Scattered Clouds
8:00 AM 42.8 °F 36.2 °F 37.4 °F 81% 29.50 in 6.2 mi North 12.7 mph - N/A   Scattered Clouds
8:30 AM 44.6 °F 37.4 °F 39.2 °F 81% 29.50 in 6.2 mi North 16.1 mph - N/A   Scattered Clouds
9:00 AM 44.6 °F 36.9 °F 37.4 °F 76% 29.50 in 6.2 mi North 18.4 mph - N/A   Scattered Clouds
9:30 AM 44.6 °F 36.6 °F 37.4 °F 76% 29.50 in 6.2 mi North 19.6 mph - N/A   Partly Cloudy
10:00 AM 44.6 °F 36.6 °F 37.4 °F 76% 29.53 in 6.2 mi North 19.6 mph - N/A   Partly Cloudy
10:30 AM 46.4 °F 38.7 °F 37.4 °F 71% 29.53 in 6.2 mi North 20.7 mph - N/A   Partly Cloudy
11:00 AM 46.4 °F 38.7 °F 37.4 °F 71% 29.53 in 6.2 mi North 20.7 mph - N/A   Partly Cloudy
11:30 AM 48.2 °F - 37.4 °F 66% 29.53 in 6.2 mi NNE 19.6 mph - N/A   Partly Cloudy
12:00 PM 47 °F - 35 °F 52% 29.57 in 37 mi NNE 21.9 mph - -   Scattered Clouds
12:00 PM 48.2 °F - 35.6 °F 62% 29.53 in 6.2 mi NNE 21.9 mph - N/A   Partly Cloudy
12:30 PM 48.2 °F - 37.4 °F 66% 29.56 in 6.2 mi North 23.0 mph - N/A   Partly Cloudy
1:00 PM 48.2 °F - 37.4 °F 66% 29.56 in 6.2 mi NNE 23.0 mph - N/A   Partly Cloudy
1:30 PM 48.2 °F - 37.4 °F 66% 29.56 in 6.2 mi North 25.3 mph - N/A   Partly Cloudy
2:00 PM 48.2 °F - 37.4 °F 66% 29.59 in 6.2 mi North 23.0 mph - N/A   Partly Cloudy
2:30 PM 48.2 °F - 39.2 °F 71% 29.59 in 6.2 mi North 27.6 mph - N/A   Scattered Clouds
3:00 PM 50.0 °F - 39.2 °F 66% 29.59 in 6.2 mi North 25.3 mph - N/A   Scattered Clouds
3:30 PM 48.2 °F - 39.2 °F 71% 29.62 in 6.2 mi North 26.5 mph - N/A   Scattered Clouds
4:00 PM 48.2 °F - 39.2 °F 71% 29.62 in 6.2 mi North 25.3 mph - N/A   Mostly Cloudy
4:30 PM 48.2 °F - 39.2 °F 71% 29.65 in 6.2 mi North 26.5 mph - N/A   Scattered Clouds
5:00 PM 46.4 °F 38.1 °F 39.2 °F 76% 29.65 in 6.2 mi North 24.2 mph - N/A   Scattered Clouds
5:30 PM 48.2 °F - 39.2 °F 71% 29.65 in 6.2 mi North 25.3 mph - N/A   Scattered Clouds
6:00 PM 48 °F - 38 °F 59% 29.69 in 34 mi North 27.6 mph - -   Scattered Clouds
6:00 PM 48.2 °F - 39.2 °F 71% 29.68 in 6.2 mi North 27.6 mph - N/A   Scattered Clouds
6:30 PM 46.4 °F 37.5 °F 39.2 °F 76% 29.68 in 6.2 mi North 27.6 mph - N/A   Scattered Clouds
7:00 PM 44.6 °F 35.3 °F 39.2 °F 81% 29.71 in 6.2 mi North 26.5 mph - N/A   Scattered Clouds
7:30 PM 44.6 °F 35.5 °F 39.2 °F 81% 29.71 in 6.2 mi North 25.3 mph - N/A   Scattered Clouds
8:30 PM 44.6 °F 35.9 °F 39.2 °F 81% 29.74 in 6.2 mi North 23.0 mph - N/A   Scattered Clouds
9:00 PM 42.8 °F 34.0 °F 39.2 °F 87% 29.77 in 6.2 mi North 20.7 mph - N/A   Partly Cloudy
9:30 PM 42.8 °F 33.8 °F 39.2 °F 87% 29.77 in 6.2 mi North 21.9 mph - N/A   Partly Cloudy
10:00 PM 41.0 °F 31.6 °F 37.4 °F 87% 29.80 in 6.2 mi North 20.7 mph - N/A   Partly Cloudy
10:30 PM 41.0 °F 33.5 °F 37.4 °F 87% 29.80 in 6.2 mi North 13.8 mph - N/A   Partly Cloudy
11:00 PM 41.0 °F 31.9 °F 37.4 °F 87% 29.80 in 6.2 mi North 19.6 mph - N/A   Partly Cloudy
11:30 PM 41.0 °F 31.1 °F 37.4 °F 87% 29.83 in 6.2 mi North 23.0 mph - N/A   Partly Cloudy